GW5794 Weather Reports


time (UTC)temp
F
wind
direction
speed
knots
gust
knots
rain 1hr
in
rain 24hr
in
rain mn
in
humidity
%
barometer
mb
20260506024529 56 298 2.6 9.6 0.00 0.00 0.00 56 1016.6
20260506024013 56 53 3.5 9.6 0.00 0.00 0.00 56 1016.4
20260506023512 57 71 3.5 10.4 0.00 0.00 0.00 54 1016.2
20260506023030 57 248 4.3 10.4 0.00 0.00 0.00 56 1016.3
20260506022512 56 267 6.1 9.6 0.00 0.00 0.00 55 1016.3
20260506022013 57 281 7.0 9.6 0.00 0.00 0.00 55 1016.3
20260506021531 57 251 5.2 8.7 0.00 0.00 0.00 53 1016.4
20260506021011 57 252 6.1 8.7 0.00 0.00 0.00 53 1016.3
20260506020512 57 293 5.2 11.3 0.00 0.00 0.00 55 1016.3
20260506020053 57 263 6.1 11.3 0.00 0.00 0.00 56 1016.3
20260506015513 58 280 4.3 8.7 0.00 0.00 0.00 57 1016.3
20260506015016 58 293 3.5 6.1 0.00 0.00 0.00 56 1016.1
20260506014527 59 302 2.6 7.8 0.00 0.00 0.00 54 1016.0
20260506014012 60 259 2.6 7.8 0.00 0.00 0.00 55 1016.0
20260506013514 60 335 1.7 7.8 0.00 0.00 0.00 52 1015.8
20260506013027 59 255 0.0 7.8 0.00 0.00 0.00 56 1015.7
20260506012511 59 297 4.3 7.8 0.00 0.00 0.00 53 1015.6
20260506012012 59 279 5.2 8.7 0.00 0.00 0.00 53 1015.6
20260506011533 59 250 7.0 8.7 0.00 0.00 0.00 52 1015.7
20260506011010 60 272 4.3 8.7 0.00 0.00 0.00 52 1015.7
20260506010511 59 293 5.2 8.7 0.00 0.00 0.00 56 1015.7
20260506010030 59 270 5.2 8.7 0.00 0.00 0.00 56 1015.7
20260506005517 59 263 6.1 9.6 0.00 0.00 0.00 56 1015.7
20260506005012 59 297 4.3 11.3 0.00 0.00 0.00 58 1015.8
20260506004539 59 273 7.0 13.0 0.00 0.00 0.00 56 1015.8
20260506004012 59 236 7.8 15.6 0.00 0.00 0.00 56 1015.8
20260506003512 59 227 7.0 15.6 0.00 0.00 0.00 57 1015.8
20260506003027 60 241 5.2 10.4 0.00 0.00 0.00 56 1015.8
20260506002512 60 235 7.8 10.4 0.00 0.00 0.00 55 1015.7
20260506002011 61 269 5.2 11.3 0.00 0.00 0.00 55 1015.8
20260506001527 61 241 6.1 11.3 0.00 0.00 0.00 55 1015.8
20260506001012 60 281 7.0 11.3 0.00 0.00 0.00 55 1015.7
20260506000511 61 267 4.3 8.7 0.00 0.00 0.00 55 1015.7
20260506000048 61 309 1.7 8.7 0.00 0.00 0.00 58 1015.6
20260505235516 62 205 4.3 8.7 0.00 0.00 0.00 54 1015.5
20260505235013 63 84 2.6 7.8 0.00 0.00 0.00 54 1015.4
20260505234528 63 291 2.6 8.7 0.00 0.00 0.00 54 1015.4
20260505234013 63 298 4.3 8.7 0.00 0.00 0.00 54 1015.4
20260505233512 63 258 2.6 8.7 0.00 0.00 0.00 55 1015.4
20260505233030 62 209 4.3 9.6 0.00 0.00 0.00 55 1015.3
20260505232512 62 227 4.3 9.6 0.00 0.00 0.00 54 1015.3
20260505232012 63 190 5.2 9.6 0.00 0.00 0.00 52 1015.3
20260505231531 63 226 3.5 8.7 0.00 0.00 0.00 52 1015.3
20260505231012 63 237 4.3 8.7 0.00 0.00 0.00 53 1015.3
20260505230512 62 211 3.5 9.6 0.00 0.00 0.00 55 1015.2
20260505230041 61 250 5.2 9.6 0.00 0.00 0.00 53 1015.1
20260505225511 61 251 4.3 11.3 0.00 0.00 0.00 54 1015.1
20260505225016 61 199 6.1 13.0 0.00 0.00 0.00 55 1015.2
20260505224537 61 250 7.0 13.0 0.00 0.00 0.00 55 1015.4
20260505224012 61 240 7.0 13.0 0.00 0.00 0.00 53 1015.4
20260505223513 62 246 7.0 13.0 0.00 0.00 0.00 55 1015.4
20260505223034 61 283 7.0 13.0 0.00 0.00 0.00 55 1015.4
20260505222515 61 214 8.7 15.6 0.00 0.00 0.00 55 1015.4
20260505222015 60 249 8.7 15.6 0.00 0.00 0.00 56 1015.4
20260505221530 61 250 8.7 15.6 0.00 0.00 0.00 55 1015.4
20260505221012 61 180 7.8 13.9 0.00 0.00 0.00 53 1015.4
20260505220512 61 213 7.8 15.6 0.00 0.00 0.00 53 1015.3
20260505220027 61 225 7.8 15.6 0.00 0.00 0.00 53 1015.2
20260505215514 62 217 8.7 13.9 0.00 0.00 0.00 52 1015.2
20260505215011 63 219 5.2 10.4 0.00 0.00 0.00 53 1015.2
20260505214530 63 196 5.2 13.0 0.00 0.00 0.00 53 1015.3
20260505214014 63 273 5.2 13.0 0.00 0.00 0.00 54 1015.2
20260505213513 63 253 7.8 13.0 0.00 0.00 0.00 53 1015.2
20260505213030 64 263 6.1 13.0 0.00 0.00 0.00 52 1015.2
20260505212514 64 239 6.1 11.3 0.00 0.00 0.00 54 1015.1
20260505212018 63 240 7.8 11.3 0.00 0.00 0.00 53 1015.2
20260505211532 63 225 7.0 11.3 0.00 0.00 0.00 55 1015.1
20260505211013 63 240 7.0 12.2 0.00 0.00 0.00 54 1015.0
20260505210513 63 227 7.8 12.2 0.00 0.00 0.00 54 1014.9
20260505210032 63 273 6.1 11.3 0.00 0.00 0.00 54 1014.9
20260505205517 64 238 7.0 11.3 0.00 0.00 0.00 52 1014.9
20260505205014 65 274 6.1 9.6 0.00 0.00 0.00 53 1014.7
20260505204530 65 201 4.3 9.6 0.00 0.00 0.00 52 1014.6
20260505204013 65 249 5.2 9.6 0.00 0.00 0.00 52 1014.6
20260505203510 65 186 3.5 9.6 0.00 0.00 0.00 52 1014.6
20260505203027 65 186 2.6 8.7 0.00 0.00 0.00 52 1014.6
20260505202512 65 294 3.5 6.1 0.00 0.00 0.00 51 1014.6
20260505202012 65 12 0.9 6.1 0.00 0.00 0.00 53 1014.5
20260505201528 64 251 2.6 5.2 0.00 0.00 0.00 53 1014.5
20260505201013 64 266 2.6 7.0 0.00 0.00 0.00 53 1014.5
20260505200511 63 270 2.6 7.0 0.00 0.00 0.00 54 1014.5
20260505200032 64 266 2.6 7.0 0.00 0.00 0.00 54 1014.5
20260505195512 64 0 0.0 6.1 0.00 0.00 0.00 54 1014.5
20260505195010 64 255 1.7 7.0 0.00 0.00 0.00 56 1014.6
20260505194528 64 239 3.5 7.0 0.00 0.00 0.00 54 1014.6
20260505194016 63 202 2.6 6.1 0.00 0.00 0.00 56 1014.5
20260505193514 63 279 2.6 6.1 0.00 0.00 0.00 56 1014.5
20260505193029 63 269 3.5 8.7 0.00 0.00 0.00 56 1014.5
20260505192511 63 324 2.6 8.7 0.00 0.00 0.00 57 1014.5
20260505192012 63 315 4.3 8.7 0.00 0.00 0.00 57 1014.5
20260505191533 62 259 3.5 7.0 0.00 0.00 0.00 58 1014.4
20260505191013 62 282 4.3 9.6 0.00 0.00 0.00 58 1014.5
20260505190511 61 282 4.3 9.6 0.00 0.00 0.00 58 1014.4
20260505190033 61 244 6.1 9.6 0.00 0.00 0.00 58 1014.4
20260505185517 61 257 6.1 10.4 0.00 0.00 0.00 58 1014.4
20260505185013 62 260 5.2 10.4 0.00 0.00 0.00 59 1014.3
20260505184538 61 263 5.2 8.7 0.00 0.00 0.00 59 1014.3
20260505184015 62 286 4.3 7.8 0.00 0.00 0.00 59 1014.2
20260505183516 62 291 2.6 7.0 0.00 0.00 0.00 62 1014.2
20260505183027 61 282 1.7 5.2 0.00 0.00 0.00 65 1014.2
20260505182515 60 0 0.9 5.2 0.00 0.00 0.00 68 1014.2
20260505182018 59 348 0.0 2.6 0.00 0.00 0.00 72 1014.2
20260505181537 58 348 0.0 2.6 0.00 0.00 0.00 74 1014.2
20260505181012 57 0 0.9 2.6 0.00 0.00 0.00 75 1014.2
20260505180512 57 106 0.9 2.6 0.00 0.00 0.00 76 1014.2
20260505180028 56 106 0.9 2.6 0.00 0.00 0.00 76 1014.1
20260505175514 56 106 0.0 2.6 0.00 0.00 0.00 76 1014.1
20260505175013 55 0 0.9 5.2 0.00 0.00 0.00 77 1014.1
20260505174537 55 106 1.7 5.2 0.00 0.00 0.00 77 1013.9
20260505174012 55 35 3.5 5.2 0.00 0.00 0.00 75 1014.0
20260505173513 55 137 2.6 5.2 0.00 0.00 0.00 75 1013.9
20260505173031 56 88 1.7 5.2 0.00 0.00 0.00 74 1013.8
20260505172515 57 140 2.6 3.5 0.00 0.00 0.00 72 1013.8
20260505172010 58 132 0.9 2.6 0.00 0.00 0.00 71 1013.8
20260505171537 58 0 0.0 3.5 0.00 0.00 0.00 71 1013.7
20260505171011 58 95 0.9 3.5 0.00 0.00 0.00 70 1013.7
20260505170515 58 0 0.9 2.6 0.00 0.00 0.00 69 1013.6
20260505170030 59 99 0.9 2.6 0.00 0.00 0.00 70 1013.7
20260505165514 59 0 0.0 4.3 0.00 0.00 0.00 70 1013.6
20260505165016 59 0 1.7 4.3 0.00 0.00 0.00 70 1013.6
20260505164527 60 280 2.6 3.5 0.00 0.00 0.00 67 1013.6
20260505164011 60 299 0.9 3.5 0.00 0.00 0.00 67 1013.6
20260505163517 60 303 0.9 2.6 0.00 0.00 0.00 69 1013.5
20260505163030 60 0 0.0 2.6 0.00 0.00 0.00 71 1013.4
20260505162511 58 0 0.0 3.5 0.00 0.00 0.00 72 1013.3
20260505162014 57 304 1.7 5.2 0.00 0.00 0.00 72 1013.4
20260505161528 57 294 2.6 5.2 0.00 0.00 0.00 73 1013.4
20260505161011 57 272 2.6 5.2 0.00 0.00 0.00 71 1013.3
20260505160518 58 292 1.7 3.5 0.00 0.00 0.00 70 1013.3
20260505153036 54 103 0.9 2.6 0.00 0.00 0.00 75 1013.0
20260505152513 54 0 0.0 2.6 0.00 0.00 0.00 76 1013.1
20260505152012 53 116 0.0 2.6 0.00 0.00 0.00 77 1013.1
20260505151532 53 108 0.9 2.6 0.00 0.00 0.00 78 1013.2
20260505151012 53 108 1.7 2.6 0.00 0.00 0.00 78 1013.1
20260505150516 53 98 1.7 2.6 0.00 0.00 0.00 78 1013.1
20260505140511 51 0 0.0 0.0 0.00 0.00 0.00 83 1012.5
20260505125011 50 0 0.0 2.6 0.00 0.00 0.00 83 1011.9
20260505124530 50 269 1.7 2.6 0.00 0.00 0.00 83 1011.8
20260505124010 50 269 0.0 2.6 0.00 0.00 0.00 83 1011.8
20260505123514 50 0 0.0 0.0 0.00 0.00 0.00 84 1011.6
20260505123044 50 0 0.0 0.0 0.00 0.00 0.00 84 1011.7
20260505122512 50 0 0.0 0.0 0.00 0.00 0.00 84 1011.7
20260505122018 50 0 0.0 0.0 0.00 0.00 0.00 85 1011.6
20260505121528 50 0 0.0 0.0 0.00 0.00 0.00 85 1011.7
20260505121013 49 0 0.0 0.0 0.00 0.00 0.00 85 1011.7
20260505120513 50 0 0.0 0.0 0.00 0.00 0.00 85 1011.6
20260505120037 50 0 0.0 0.0 0.00 0.00 0.00 84 1011.7
20260505115512 50 0 0.0 0.0 0.00 0.00 0.00 84 1011.7
20260505115012 50 0 0.0 1.7 0.00 0.00 0.00 84 1011.8
20260505114531 49 0 0.0 1.7 0.00 0.00 0.00 84 1011.8
20260505114011 50 0 0.0 1.7 0.00 0.00 0.00 82 1011.7
20260505113512 50 0 0.0 0.0 0.00 0.00 0.00 82 1011.6
20260505113029 51 0 0.0 0.0 0.00 0.00 0.00 82 1011.6
20260505112515 50 0 0.0 0.0 0.00 0.00 0.00 82 1011.6
20260505112014 51 0 0.0 0.0 0.00 0.00 0.00 82 1011.4
20260505111535 51 0 0.0 0.0 0.00 0.00 0.00 82 1011.4
20260505111013 51 0 0.0 0.0 0.00 0.00 0.00 82 1011.4
20260505110510 51 0 0.0 0.0 0.00 0.00 0.00 82 1011.5
20260505102011 51 269 0.9 2.6 0.00 0.00 0.00 81 1011.3
20260505101013 52 0 0.0 1.7 0.00 0.00 0.00 79 1011.3
20260505100512 52 0 0.0 1.7 0.00 0.00 0.00 79 1011.3
20260505100034 52 0 0.9 2.6 0.00 0.00 0.00 79 1011.4
20260505095517 52 302 0.9 2.6 0.00 0.00 0.00 78 1011.4
20260505095016 52 302 0.0 0.0 0.00 0.00 0.00 78 1011.4
20260505094532 53 0 0.0 1.7 0.00 0.00 0.00 77 1011.5
20260505094013 53 0 0.0 3.5 0.00 0.00 0.00 77 1011.5
20260505093512 53 0 0.0 3.5 0.00 0.00 0.00 77 1011.5
20260505093031 53 265 1.7 3.5 0.00 0.00 0.00 76 1011.4
20260505092513 54 259 0.9 2.6 0.00 0.00 0.00 76 1011.3
20260505092013 54 259 1.7 2.6 0.00 0.00 0.00 76 1011.2
20260505091528 54 165 0.0 1.7 0.00 0.00 0.00 75 1011.2
20260505091013 54 0 0.0 0.0 0.00 0.00 0.00 75 1011.2
20260505090511 54 0 0.0 1.7 0.00 0.00 0.00 76 1011.2
20260505090029 54 0 0.0 1.7 0.00 0.00 0.00 76 1011.2
20260505085512 54 165 0.0 1.7 0.00 0.00 0.00 77 1011.2
20260505085010 53 0 0.0 1.7 0.00 0.00 0.00 77 1011.2
20260505084534 54 0 0.0 0.0 0.00 0.00 0.00 77 1011.2
20260505084010 54 0 0.0 0.0 0.00 0.00 0.00 76 1011.2
20260505083517 54 0 0.0 0.0 0.00 0.00 0.00 76 1011.2
20260505083030 54 0 0.0 0.0 0.00 0.00 0.00 76 1011.2
20260505082515 55 0 0.0 1.7 0.00 0.00 0.00 76 1011.2
20260505082012 55 0 0.9 1.7 0.00 0.00 0.00 76 1011.3
20260505081529 54 0 0.0 2.6 0.00 0.00 0.00 77 1011.2
20260505081013 54 165 0.9 2.6 0.00 0.00 0.00 77 1011.2
20260505080517 55 0 0.0 1.7 0.00 0.00 0.00 76 1011.2
20260505080030 55 344 0.0 1.7 0.00 0.00 0.00 75 1011.2
20260505075513 56 0 0.0 1.7 0.00 0.00 0.00 74 1011.1
20260505075012 56 240 0.0 0.0 0.00 0.00 0.00 72 1011.1
20260505074534 57 0 0.0 1.7 0.00 0.00 0.00 72 1011.1
20260505074014 57 0 0.0 2.6 0.00 0.00 0.00 71 1011.1
20260505073515 57 240 0.0 2.6 0.00 0.00 0.00 71 1011.2
20260505073029 57 240 0.9 2.6 0.00 0.00 0.00 72 1011.2
20260505072513 56 316 1.7 1.7 0.00 0.00 0.00 74 1011.2
20260505072011 55 317 0.9 2.6 0.00 0.00 0.00 76 1011.2
20260505071531 55 317 1.7 2.6 0.00 0.00 0.00 78 1011.2
20260505071014 55 0 0.0 1.7 0.00 0.00 0.00 78 1011.3
20260505070515 55 0 0.0 1.7 0.00 0.00 0.00 77 1011.4
20260505070031 56 316 0.9 1.7 0.00 0.00 0.00 76 1011.4
20260505065510 56 0 0.0 0.0 0.00 0.00 0.00 75 1011.4
20260505065012 56 0 0.0 0.0 0.00 0.00 0.00 75 1011.3
20260505064533 56 0 0.0 0.0 0.00 0.00 0.00 74 1011.3
20260505064013 56 0 0.0 1.7 0.00 0.00 0.00 74 1011.2
20260505063513 56 0 0.0 2.6 0.00 0.00 0.00 74 1011.2
20260505063027 56 317 1.7 3.5 0.00 0.00 0.00 73 1011.2
20260505062511 57 317 0.9 3.5 0.00 0.00 0.00 72 1011.2
20260505062013 58 0 0.0 0.9 0.00 0.00 0.00 69 1011.2
20260505061528 59 0 0.0 3.5 0.00 0.00 0.00 67 1011.1
20260505061010 59 168 0.9 3.5 0.00 0.00 0.00 66 1011.2
20260505060513 58 168 1.7 3.5 0.00 0.00 0.00 68 1011.1
20260505060031 57 168 0.9 3.5 0.00 0.00 0.00 69 1011.2
20260505055514 57 0 0.0 0.0 0.00 0.00 0.00 69 1011.3
20260505055014 57 0 0.0 0.0 0.00 0.00 0.00 69 1011.4
20260505054543 57 0 0.0 0.9 0.00 0.00 0.00 70 1011.3
20260505054014 57 0 0.0 0.9 0.00 0.00 0.00 70 1011.3
20260505053516 57 0 0.0 0.0 0.00 0.00 0.00 69 1011.3
20260505053030 58 0 0.0 1.7 0.00 0.00 0.00 69 1011.3
20260505052512 58 0 0.0 1.7 0.00 0.00 0.00 68 1011.3
20260505052010 58 0 0.0 1.7 0.00 0.00 0.00 68 1011.3
20260505051530 59 0 0.0 1.7 0.00 0.00 0.00 69 1011.3
20260505051013 59 0 0.0 0.0 0.00 0.00 0.00 70 1011.3
20260505050513 58 0 0.0 0.0 0.00 0.00 0.00 71 1011.3
20260505041531 63 0 0.0 1.7 0.00 0.00 0.00 58 1011.2
20260505041013 63 292 0.9 1.7 0.00 0.00 0.00 57 1011.2
20260505040511 63 292 0.9 1.7 0.00 0.00 0.00 56 1011.2
20260505040032 64 320 0.0 1.7 0.00 0.00 0.00 55 1011.3
20260505035513 65 0 0.0 0.0 0.00 0.00 0.00 54 1011.4
20260505035012 65 0 0.0 0.0 0.00 0.00 0.00 54 1011.3
20260505034528 66 0 0.0 1.7 0.00 0.00 0.00 54 1011.4
20260505034012 66 0 0.0 1.7 0.00 0.00 0.00 54 1011.4
20260505033512 66 321 0.0 0.9 0.00 0.00 0.00 54 1011.4
20260505033030 66 0 0.0 1.7 0.00 0.00 0.00 54 1011.3
20260505032512 66 0 0.0 1.7 0.00 0.00 0.00 54 1011.3
20260505032011 67 0 0.0 1.7 0.00 0.00 0.00 54 1011.3
20260505031529 67 288 0.0 5.2 0.00 0.00 0.00 53 1011.4
20260505031012 67 288 1.7 5.2 0.00 0.00 0.00 52 1011.3
20260505030513 67 306 1.7 3.5 0.00 0.00 0.00 52 1011.3
20260505030042 67 290 0.9 2.6 0.00 0.00 0.00 52 1011.3
20260505025515 67 290 0.0 1.7 0.00 0.00 0.00 53 1011.3
20260505025012 67 290 0.0 2.6 0.00 0.00 0.00 53 1011.4